YB2NDX-15 Weather Reports


time (UTC)temp
F
wind
direction
speed
knots
gust
knots
rain 1hr
in
rain 24hr
in
rain mn
in
humidity
%
barometer
mb
20260509202007 79 0.0 0.0 0.00 0.00 0.00 1007.6
20260509201001 79 0.0 0.0 0.00 0.00 0.00 1007.6
20260509195954 79 0.0 0.0 0.00 0.00 0.00 1007.8
20260509194948 79 0.0 0.0 0.00 0.00 0.00 1007.8
20260509193942 79 0.0 0.0 0.00 0.00 0.00 1007.8
20260509192935 79 0.0 0.0 0.00 0.00 0.00 1007.9
20260509191929 79 0.0 0.0 0.00 0.00 0.00 1008.0
20260509190923 79 0.0 0.0 0.00 0.00 0.00 1007.9
20260509184910 79 0.0 0.0 0.00 0.00 0.00 1008.1
20260509183903 79 0.0 0.0 0.00 0.00 0.00 1008.2
20260509182857 79 0.0 0.0 0.00 0.00 0.00 1008.4
20260509181851 79 0.0 0.0 0.00 0.00 0.00 1008.5
20260509180844 80 0.0 0.0 0.00 0.00 0.00 1008.5
20260509175838 80 0.0 0.0 0.00 0.00 0.00 1008.7
20260509174831 80 0.0 0.0 0.00 0.00 0.00 1008.9
20260509173825 80 0.0 0.0 0.00 0.00 0.00 1009.0
20260509172819 80 0.0 0.0 0.00 0.00 0.00 1009.2
20260509171812 79 0.0 0.0 0.00 0.00 0.00 1009.2
20260509170806 79 0.0 0.0 0.00 0.00 0.00 1009.3
20260509165800 79 0.0 0.0 0.00 0.00 0.00 1009.3
20260509163747 80 0.0 0.0 0.00 0.00 0.00 1009.4
20260509162741 80 0.0 0.0 0.00 0.00 0.00 1009.5
20260509161734 80 0.0 0.0 0.00 0.00 0.00 1009.6
20260509160728 80 0.0 0.0 0.00 0.00 0.00 1009.7
20260509155722 80 0.0 0.0 0.00 0.00 0.00 1009.6
20260509154716 80 0.0 0.0 0.00 0.00 0.00 1009.7
20260509153710 80 0.0 0.0 0.00 0.00 0.00 1009.7
20260509151657 81 0.0 0.0 0.00 0.00 0.00 1009.6
20260509150651 81 0.0 0.0 0.00 0.00 0.00 1009.6
20260509145644 81 0.0 0.0 0.00 0.00 0.00 1009.6
20260509144638 81 0.0 0.0 0.00 0.00 0.00 1009.4
20260509143632 81 0.0 0.0 0.00 0.00 0.00 1009.2
20260509142626 82 0.0 0.0 0.00 0.00 0.00 1009.2
20260509141619 82 0.0 0.0 0.00 0.00 0.00 1009.1
20260509140613 82 0.0 0.0 0.00 0.00 0.00 1009.1
20260509134600 82 0.0 0.0 0.00 0.00 0.00 1009.0
20260509133553 82 0.0 0.0 0.00 0.00 0.00 1009.0
20260509132547 82 0.0 0.0 0.00 0.00 0.00 1009.0
20260509131541 82 0.0 0.0 0.00 0.00 0.00 1009.0
20260509130536 83 0.0 0.0 0.00 0.00 0.00 1008.8
20260509125529 83 0.0 0.0 0.00 0.00 0.00 1008.6
20260509124522 83 0.0 0.0 0.00 0.00 0.00 1008.5
20260509123516 83 0.0 0.0 0.00 0.00 0.00 1008.3
20260509122509 83 0.0 0.0 0.00 0.00 0.00 1008.2
20260509121503 83 0.0 0.0 0.00 0.00 0.00 1008.0
20260509120457 84 0.0 0.0 0.00 0.00 0.00 1008.0
20260509115451 84 0.0 0.0 0.00 0.00 0.00 1008.0
20260509114444 84 0.0 0.0 0.00 0.00 0.00 1007.8
20260509113437 84 0.0 0.0 0.00 0.00 0.00 1007.7
20260509112431 84 0.0 0.0 0.00 0.00 0.00 1007.4
20260509111425 84 0.0 0.0 0.00 0.00 0.00 1007.2
20260509105413 83 0.0 0.0 0.00 0.00 0.00 1007.1
20260509104407 83 0.0 0.0 0.00 0.00 0.00 1007.0
20260509103401 83 0.0 0.0 0.00 0.00 0.00 1006.8
20260509102354 83 0.0 0.0 0.00 0.00 0.00 1006.6
20260509101348 82 0.0 0.0 0.00 0.00 0.00 1006.6
20260509100341 81 0.0 0.0 0.00 0.00 0.00 1006.7
20260509095335 82 0.0 0.0 0.00 0.00 0.00 1006.6
20260509094328 87 0.0 0.0 0.00 0.00 0.00 1006.5
20260509093322 91 0.0 0.0 0.00 0.00 0.00 1006.1
20260509091309 94 0.0 0.0 0.00 0.00 0.00 1006.0
20260509090302 94 0.0 0.0 0.00 0.00 0.00 1005.9
20260509085256 94 0.0 0.0 0.00 0.00 0.00 1006.0
20260509084250 95 0.0 0.0 0.00 0.00 0.00 1005.9
20260509083243 96 0.0 0.0 0.00 0.00 0.00 1005.7
20260509082237 101 0.0 0.0 0.00 0.00 0.00 1006.2
20260509081231 103 0.0 0.0 0.00 0.00 0.00 1006.3
20260509080222 100 0.0 0.0 0.00 0.00 0.00 1006.2
20260509075216 94 0.0 0.0 0.00 0.00 0.00 1005.8
20260509074210 93 0.0 0.0 0.00 0.00 0.00 1005.8
20260509073203 93 0.0 0.0 0.00 0.00 0.00 1005.7
20260509072157 93 0.0 0.0 0.00 0.00 0.00 1005.8
20260509071151 92 0.0 0.0 0.00 0.00 0.00 1005.9
20260509070145 92 0.0 0.0 0.00 0.00 0.00 1006.0
20260509065138 93 0.0 0.0 0.00 0.00 0.00 1006.1
20260509064132 92 0.0 0.0 0.00 0.00 0.00 1006.1
20260509063125 91 0.0 0.0 0.00 0.00 0.00 1006.2
20260509060107 91 0.0 0.0 0.00 0.00 0.00 1006.4
20260509055100 90 0.0 0.0 0.00 0.00 0.00 1006.6
20260509054054 91 0.0 0.0 0.00 0.00 0.00 1006.5
20260509053048 91 0.0 0.0 0.00 0.00 0.00 1006.7
20260509052041 93 0.0 0.0 0.00 0.00 0.00 1006.7
20260509051035 94 0.0 0.0 0.00 0.00 0.00 1006.8
20260509045021 96 0.0 0.0 0.00 0.00 0.00 1007.0
20260509044015 95 0.0 0.0 0.00 0.00 0.00 1007.1
20260509043009 93 0.0 0.0 0.00 0.00 0.00 1007.2
20260509042001 95 0.0 0.0 0.00 0.00 0.00 1007.4
20260509040955 95 0.0 0.0 0.00 0.00 0.00 1007.5
20260509035948 94 0.0 0.0 0.00 0.00 0.00 1007.6
20260509034941 94 0.0 0.0 0.00 0.00 0.00 1007.8
20260509033935 94 0.0 0.0 0.00 0.00 0.00 1008.0
20260509032928 94 0.0 0.0 0.00 0.00 0.00 1008.1
20260509031922 94 0.0 0.0 0.00 0.00 0.00 1008.2
20260509025909 93 0.0 0.0 0.00 0.00 0.00 1008.6
20260509024903 93 0.0 0.0 0.00 0.00 0.00 1008.6
20260509022850 93 0.0 0.0 0.00 0.00 0.00 1008.8
20260509021843 92 0.0 0.0 0.00 0.00 0.00 1009.0
20260509020837 92 0.0 0.0 0.00 0.00 0.00 1008.9
20260509015830 91 0.0 0.0 0.00 0.00 0.00 1009.1
20260509013817 90 0.0 0.0 0.00 0.00 0.00 1009.1
20260509012811 89 0.0 0.0 0.00 0.00 0.00 1009.2
20260509011804 88 0.0 0.0 0.00 0.00 0.00 1009.2
20260509010757 87 0.0 0.0 0.00 0.00 0.00 1009.2
20260509005751 86 0.0 0.0 0.00 0.00 0.00 1009.1
20260509004745 86 0.0 0.0 0.00 0.00 0.00 1009.1
20260509003738 85 0.0 0.0 0.00 0.00 0.00 1009.1
20260509001715 83 0.0 0.0 0.00 0.00 0.00 1009.0
20260509000708 83 0.0 0.0 0.00 0.00 0.00 1009.1
20260508235702 83 0.0 0.0 0.00 0.00 0.00 1009.1
20260508234655 83 0.0 0.0 0.00 0.00 0.00 1009.1
20260508233649 82 0.0 0.0 0.00 0.00 0.00 1009.1
20260508232643 81 0.0 0.0 0.00 0.00 0.00 1009.0
20260508231637 81 0.0 0.0 0.00 0.00 0.00 1009.0
20260508230630 80 0.0 0.0 0.00 0.00 0.00 1008.9
20260508225624 80 0.0 0.0 0.00 0.00 0.00 1008.8
20260508223611 80 0.0 0.0 0.00 0.00 0.00 1008.5
20260508222605 80 0.0 0.0 0.00 0.00 0.00 1008.3
20260508221558 80 0.0 0.0 0.00 0.00 0.00 1008.1
20260508220552 81 0.0 0.0 0.00 0.00 0.00 1008.0
20260508215546 81 0.0 0.0 0.00 0.00 0.00 1008.0
20260508214540 81 0.0 0.0 0.00 0.00 0.00 1008.0
20260508213533 81 0.0 0.0 0.00 0.00 0.00 1007.9
20260508212527 81 0.0 0.0 0.00 0.00 0.00 1007.9
20260508211520 81 0.0 0.0 0.00 0.00 0.00 1007.9
20260508210514 81 0.0 0.0 0.00 0.00 0.00 1007.8
20260508205508 81 0.0 0.0 0.00 0.00 0.00 1007.6
20260508204501 81 0.0 0.0 0.00 0.00 0.00 1007.6
20260508202449 81 0.0 0.0 0.00 0.00 0.00 1007.7